Starlink 33545

operational
NORAD ID: 62101 Int'l Des: 2024-220 Owner: SPXS Country: US Constellation: starlink
LEOCIRCULAR

About Starlink 33545

Description loading...

Live Position

Loading 3D Globe...

Upcoming Passes

Altitude History

Altitude vs Time

uPlot chart will show altitude changes over time

Two-Line Element Set

1 62101U 24220P 26036.45106402 .00041293 00000-0 14999-2 0 9992
2 62101 42.9965 27.3555 0000275 264.6727 95.4093 15.27620116 68096
Epoch: Feb 5, 2026 • Age: 17 hours

Current Status

Altitude 490.6 km
Velocity 7.62 km/s
Sub-Earth Point -29.99°S, 52.55°E
Launch Date Nov 25, 2024
Age 1.1 years
Type internet

Technical Details

Classification Payload
Mass 530.00 kg
Dry Mass 500.00 kg
Total Mass 530.00 kg
Length 0.30 m
Diameter 4.10 m
Span 29.00 m
Shape Box + pan
Manufacturer SPXS
Bus Type Starlink V2MO
Phase Status In Orbit
Owner/State SPXS/US

Large Constellations

Loading constellations...